• In Uzbekistan
  • List of Countries
  • For 7 days
  • Water Temperature
  • Satellite Maps
  • Weather Map
  • Weather Widgets
  • user-avatar
    Login

    Hourly Weather Ali Bayramli

    Today, 26 March, Sunday

    Time Temperature Precipitation Wind Pressure Humidity
    00:00 +5°C° 0 mm 3 mps 760 mmHg 91%
    01:00 +6°C° 0 mm 2 mps 760 mmHg 92%
    02:00 +6°C° 0 mm 2 mps 760 mmHg 93%
    03:00 +6°C° 0 mm 2 mps 760 mmHg 94%
    04:00 +5°C° 0 mm 2 mps 760 mmHg 94%
    05:00 +5°C° 0 mm 2 mps 760 mmHg 95%
    06:00 +5°C° 0 mm 2 mps 760 mmHg 95%
    07:00 +7°C° 0 mm 2 mps 760 mmHg 86%
    08:00 +9°C° 0 mm 3 mps 760 mmHg 78%
    09:00 +11°C° 0 mm 3 mps 760 mmHg 69%
    10:00 +13°C° 0 mm 3 mps 759 mmHg 62%
    11:00 +14°C° 0 mm 3 mps 759 mmHg 54%
    12:00 +17°C° 0 mm 4 mps 758 mmHg 47%
    13:00 +17°C° 0 mm 4 mps 758 mmHg 45%
    14:00 +18°C° 0 mm 4 mps 758 mmHg 43%
    15:00 +17°C° 0 mm 5 mps 757 mmHg 42%
    16:00 +16°C° 0 mm 5 mps 757 mmHg 48%
    17:00 +15°C° 0 mm 5 mps 758 mmHg 54%
    18:00 +13°C° 0 mm 5 mps 758 mmHg 60%
    19:00 +12°C° 0 mm 4 mps 758 mmHg 66%
    20:00 +11°C° 0 mm 4 mps 758 mmHg 71%
    21:00 +10°C° 0 mm 4 mps 758 mmHg 77%
    22:00 +10°C° 0 mm 3 mps 758 mmHg 78%
    23:00 +9°C° 0 mm 3 mps 758 mmHg 79%

    Tomorrow, 27 March, Monday

    Time Temperature Precipitation Wind Pressure Humidity
    00:00 +9°C° 0 mm 2 mps 758 mmHg 80%
    01:00 +9°C° 0 mm 2 mps 758 mmHg 78%
    02:00 +9°C° 0 mm 3 mps 757 mmHg 75%
    03:00 +9°C° 0 mm 3 mps 757 mmHg 72%
    04:00 +9°C° 0 mm 3 mps 757 mmHg 68%
    05:00 +8°C° 0 mm 3 mps 757 mmHg 64%
    06:00 +8°C° 0 mm 3 mps 757 mmHg 59%
    07:00 +11°C° 0 mm 4 mps 757 mmHg 53%
    08:00 +13°C° 0 mm 4 mps 757 mmHg 47%
    09:00 +15°C° 0 mm 5 mps 757 mmHg 40%
    10:00 +17°C° 0 mm 5 mps 757 mmHg 36%
    11:00 +20°C° 0 mm 5 mps 757 mmHg 33%
    12:00 +21°C° 0 mm 5 mps 756 mmHg 29%
    13:00 +22°C° 0 mm 5 mps 756 mmHg 29%
    14:00 +22°C° 0 mm 5 mps 755 mmHg 29%
    15:00 +22°C° 0 mm 5 mps 755 mmHg 28%
    16:00 +20°C° 0 mm 4 mps 755 mmHg 35%
    17:00 +18°C° 0 mm 3 mps 755 mmHg 41%
    18:00 +16°C° 0 mm 3 mps 755 mmHg 48%
    19:00 +15°C° 0 mm 2 mps 755 mmHg 52%
    20:00 +14°C° 0 mm 2 mps 755 mmHg 55%
    21:00 +13°C° 0 mm 1 mps 756 mmHg 59%
    22:00 +13°C° 0 mm 2 mps 756 mmHg 59%
    23:00 +12°C° 0 mm 2 mps 756 mmHg 60%

    Day after tomorrow, 28 March, Tuesday

    Time Temperature Precipitation Wind Pressure Humidity
    00:00 +12°C° 0 mm 2 mps 756 mmHg 60%
    01:00 +10°C° 0 mm 2 mps 756 mmHg 62%
    02:00 +10°C° 0 mm 2 mps 757 mmHg 64%
    03:00 +9°C° 0 mm 2 mps 757 mmHg 65%
    04:00 +9°C° 0 mm 3 mps 757 mmHg 69%
    05:00 +8°C° 0 mm 3 mps 758 mmHg 73%
    06:00 +8°C° 0 mm 3 mps 758 mmHg 77%
    07:00 +10°C° 0 mm 4 mps 759 mmHg 70%
    08:00 +10°C° 0 mm 5 mps 760 mmHg 64%
    09:00 +13°C° 0 mm 6 mps 760 mmHg 57%
    10:00 +14°C° 0 mm 6 mps 760 mmHg 55%
    11:00 +15°C° 0 mm 6 mps 760 mmHg 52%
    12:00 +16°C° 0 mm 6 mps 761 mmHg 50%
    13:00 +16°C° 0 mm 6 mps 760 mmHg 51%
    14:00 +15°C° 0 mm 6 mps 760 mmHg 53%
    15:00 +15°C° 0 mm 6 mps 760 mmHg 54%
    16:00 +13°C° 0 mm 6 mps 760 mmHg 60%
    17:00 +12°C° 0 mm 5 mps 760 mmHg 65%
    18:00 +11°C° 0 mm 4 mps 760 mmHg 71%
    19:00 +10°C° 0 mm 3 mps 760 mmHg 75%
    20:00 +9°C° 0 mm 3 mps 760 mmHg 80%
    21:00 +8°C° 0 mm 2 mps 760 mmHg 84%
    22:00 +8°C° 0 mm 2 mps 760 mmHg 85%
    23:00 +8°C° 0 mm 2 mps 760 mmHg 87%

    29 March, Wednesday

    Time Temperature Precipitation Wind Pressure Humidity
    00:00 +8°C° 0 mm 2 mps 759 mmHg 88%
    01:00 +8°C° 0 mm 2 mps 759 mmHg 88%
    02:00 +7°C° 0 mm 3 mps 759 mmHg 89%
    03:00 +7°C° 0 mm 3 mps 759 mmHg 89%
    04:00 +7°C° 0 mm 3 mps 759 mmHg 88%
    05:00 +7°C° 0 mm 3 mps 759 mmHg 88%
    06:00 +7°C° 0 mm 3 mps 759 mmHg 87%
    07:00 +9°C° 0 mm 3 mps 760 mmHg 75%
    08:00 +12°C° 0 mm 3 mps 760 mmHg 62%
    09:00 +14°C° 0 mm 3 mps 760 mmHg 50%
    10:00 +16°C° 0 mm 3 mps 760 mmHg 45%
    11:00 +18°C° 0 mm 3 mps 760 mmHg 40%
    12:00 +19°C° 0 mm 3 mps 760 mmHg 36%
    13:00 +19°C° 0 mm 4 mps 760 mmHg 36%
    14:00 +19°C° 0 mm 5 mps 760 mmHg 36%
    15:00 +19°C° 0 mm 6 mps 760 mmHg 37%
    16:00 +16°C° 0 mm 6 mps 761 mmHg 43%
    17:00 +14°C° 0 mm 7 mps 762 mmHg 49%
    18:00 +11°C° 0 mm 7 mps 763 mmHg 54%
    19:00 +10°C° 0 mm 7 mps 764 mmHg 58%
    20:00 +9°C° 0 mm 6 mps 765 mmHg 61%
    21:00 +9°C° 0 mm 6 mps 766 mmHg 64%
    22:00 +8°C° 0 mm 6 mps 767 mmHg 67%
    23:00 +8°C° 0 mm 5 mps 767 mmHg 71%

    30 March, Thursday

    Time Temperature Precipitation Wind Pressure Humidity
    00:00 +7°C° 0 mm 5 mps 767 mmHg 74%
    01:00 +7°C° 0 mm 5 mps 767 mmHg 75%
    02:00 +6°C° 0 mm 4 mps 768 mmHg 75%
    03:00 +6°C° 0 mm 4 mps 768 mmHg 76%
    04:00 +6°C° 0 mm 4 mps 768 mmHg 75%
    05:00 +7°C° 0 mm 3 mps 768 mmHg 74%
    06:00 +7°C° 0 mm 3 mps 769 mmHg 73%
    07:00 +8°C° 0 mm 3 mps 769 mmHg 69%
    08:00 +8°C° 0 mm 4 mps 768 mmHg 65%
    09:00 +8°C° 0 mm 4 mps 768 mmHg 62%
    10:00 +10°C° 0 mm 4 mps 768 mmHg 62%
    11:00 +10°C° 0 mm 4 mps 767 mmHg 63%
    12:00 +11°C° 0 mm 4 mps 766 mmHg 64%
    13:00 +12°C° 0 mm 4 mps 765 mmHg 63%
    14:00 +12°C° 0 mm 4 mps 765 mmHg 62%
    15:00 +13°C° 0 mm 4 mps 764 mmHg 62%
    16:00 +12°C° 0 mm 4 mps 763 mmHg 65%
    17:00 +11°C° 0 mm 3 mps 763 mmHg 69%
    18:00 +10°C° 0 mm 3 mps 762 mmHg 73%
    19:00 +10°C° 0 mm 3 mps 762 mmHg 77%
    20:00 +9°C° 0 mm 3 mps 762 mmHg 81%
    21:00 +8°C° 0 mm 2 mps 761 mmHg 85%
    22:00 +8°C° 0 mm 2 mps 761 mmHg 86%
    23:00 +7°C° 0 mm 3 mps 760 mmHg 88%

    31 March, Friday

    Time Temperature Precipitation Wind Pressure Humidity
    00:00 +7°C° 0 mm 3 mps 759 mmHg 89%
    01:00 +7°C° 0 mm 3 mps 758 mmHg 89%
    02:00 +7°C° 0 mm 3 mps 758 mmHg 90%
    03:00 +6°C° 0 mm 4 mps 757 mmHg 90%
    04:00 +6°C° 0 mm 4 mps 757 mmHg 88%
    05:00 +6°C° 0 mm 4 mps 756 mmHg 87%
    06:00 +6°C° 0 mm 5 mps 756 mmHg 86%
    07:00 +8°C° 0 mm 5 mps 756 mmHg 74%
    08:00 +12°C° 0 mm 5 mps 756 mmHg 62%
    09:00 +14°C° 0 mm 5 mps 756 mmHg 51%
    10:00 +17°C° 0 mm 4 mps 756 mmHg 45%
    11:00 +19°C° 0 mm 3 mps 755 mmHg 40%
    12:00 +20°C° 0 mm 3 mps 755 mmHg 34%
    13:00 +20°C° 0 mm 4 mps 755 mmHg 36%
    14:00 +20°C° 0 mm 6 mps 755 mmHg 37%
    15:00 +20°C° 0 mm 7 mps 754 mmHg 38%
    16:00 +17°C° 0.1 mm 9 mps 755 mmHg 43%
    17:00 +16°C° 0.1 mm 10 mps 756 mmHg 47%
    18:00 +13°C° 0.1 mm 11 mps 756 mmHg 51%
    19:00 +11°C° 0.1 mm 11 mps 757 mmHg 55%
    20:00 +9°C° 0.1 mm 12 mps 758 mmHg 59%
    21:00 +8°C° 0.1 mm 12 mps 759 mmHg 62%
    22:00 +7°C° 0.6 mm 13 mps 760 mmHg 65%
    23:00 +5°C° 0.6 mm 13 mps 761 mmHg 68%
    Show more